Florence, SC

5:55 AM EDT on August 26, 2016 (GMT -0400)
Florence Regional

Weather History for KFLO - June, 2013

Change the Weather History Date:

Thursday, June 20, 2013

  Actual Average Record
Temperature  
Mean Temperature 77 °F 79 °F  
Max Temperature 87 °F 89 °F 102 °F (2011)
Min Temperature 67 °F 69 °F 58 °F (1954)
Degree Days  
Heating Degree Days 0 0  
Month to date heating degree days 0 0  
Since 1 June heating degree days 0 0  
Since 1 July heating degree days 2335 2523  
Cooling Degree Days 12 14  
Month to date cooling degree days 267 247  
Year to date cooling degree days 534 554  
Since 1 June cooling degree days 267 247  
Growing Degree Days 26 (Base 50)    
Moisture  
Dew Point 64 °F    
Average Humidity 71    
Maximum Humidity 97    
Minimum Humidity 44    
Precipitation  
Precipitation 0.00 in 0.15 in 2.85 in (1984)
Month to date precipitation 6.34 3.13  
Year to date precipitation 25.17 18.49  
Sea Level Pressure  
Sea Level Pressure 30.15 in    
Wind  
Wind Speed 9 mph (NE)    
Max Wind Speed 17 mph    
Max Gust Speed 22 mph    
Visibility 9 miles    
Events      
T = Trace of Precipitation, MM = Missing Value Source: NWS Daily Summary

Daily Weather History Graph

Daily Weather History Graph

Search for Another Location

Airport or City:

Trip Planner

Search our weather history database for the weather conditions in past years. The results will help you decide how hot, cold, wet, or windy it might be!

Date:

Astronomy

Jun. 20, 2013 Rise Set
Actual Time 6:07 AM EDT 8:33 PM EDT
Civil Twilight 5:38 AM EDT 9:03 PM EDT
Nautical Twilight 5:01 AM EDT 9:39 PM EDT
Astronomical Twilight 4:22 AM EDT 10:18 PM EDT
Moon 5:38 PM EDT (6/20) 3:26 AM EDT (6/20)
Length of Visible Light 15h 24m
Length of Day
14h 26m
Waxing Gibbous, 89% of the Moon is Illuminated
Jun 20
Waxing Gibbous
Jun 23
Full
Jun 30
Last Quarter
Jul 8
New
Jul 15
First Quarter

Hourly Weather History & Observations

Time (EDT) Temp. Heat Index Dew Point Humidity Pressure Visibility Wind Dir Wind Speed Gust Speed Precip Events Conditions
12:53 AM 71.1 °F - 68.0 °F 90% 30.09 in 10.0 mi NE 4.6 mph - N/A   Clear
1:53 AM 70.0 °F - 68.0 °F 93% 30.09 in 8.0 mi NE 5.8 mph - N/A   Scattered Clouds
2:53 AM 70.0 °F - 66.9 °F 90% 30.09 in 9.0 mi NE 5.8 mph - N/A   Clear
3:53 AM 69.1 °F - 66.9 °F 93% 30.09 in 7.0 mi ENE 5.8 mph - N/A   Clear
4:53 AM 69.1 °F - 66.0 °F 90% 30.09 in 7.0 mi ENE 6.9 mph - N/A   Clear
5:01 AM 69.8 °F - 66.2 °F 88% 30.10 in 6.0 mi NE 6.9 mph - N/A   Scattered Clouds
5:10 AM 69.8 °F - 66.2 °F 88% 30.11 in 6.0 mi NE 5.8 mph - N/A   Mostly Cloudy
5:53 AM 68.0 °F - 64.9 °F 90% 30.12 in 8.0 mi NE 9.2 mph - N/A   Partly Cloudy
6:53 AM 66.9 °F - 64.0 °F 90% 30.14 in 7.0 mi ENE 5.8 mph - N/A   Clear
7:45 AM 68.0 °F - 64.4 °F 88% 30.16 in 8.0 mi NE 8.1 mph - N/A   Scattered Clouds
7:53 AM 69.1 °F - 64.9 °F 87% 30.16 in 9.0 mi NE 8.1 mph - N/A   Scattered Clouds
8:18 AM 69.8 °F - 64.4 °F 83% 30.18 in 8.0 mi NE 8.1 mph - N/A   Mostly Cloudy
8:53 AM 71.1 °F - 64.0 °F 78% 30.18 in 10.0 mi NE 11.5 mph - N/A   Mostly Cloudy
9:04 AM 71.6 °F - 64.4 °F 78% 30.19 in 10.0 mi NE 10.4 mph - N/A   Scattered Clouds
9:53 AM 75.0 °F - 63.0 °F 66% 30.18 in 10.0 mi ENE 11.5 mph 17.3 mph N/A   Clear
10:53 AM 78.1 °F - 63.0 °F 60% 30.18 in 10.0 mi NE 13.8 mph - N/A   Clear
11:53 AM 81.0 °F 81.9 °F 62.1 °F 52% 30.19 in 10.0 mi NE 15.0 mph - N/A   Clear
12:53 PM 82.9 °F 83.3 °F 61.0 °F 47% 30.17 in 10.0 mi East 11.5 mph - N/A   Clear
1:53 PM 84.0 °F 84.4 °F 61.0 °F 46% 30.17 in 10.0 mi ENE 11.5 mph 18.4 mph N/A   Clear
2:53 PM 84.9 °F 85.0 °F 61.0 °F 44% 30.17 in 10.0 mi ENE 8.1 mph - N/A   Clear
3:53 PM 84.9 °F 85.0 °F 61.0 °F 44% 30.16 in 10.0 mi ENE 13.8 mph - N/A   Clear
4:53 PM 86.0 °F 86.3 °F 62.1 °F 44% 30.15 in 10.0 mi ENE 6.9 mph 17.3 mph N/A   Mostly Cloudy
5:53 PM 84.9 °F 85.4 °F 62.1 °F 46% 30.14 in 10.0 mi ENE 10.4 mph - N/A   Clear
6:53 PM 84.0 °F 84.4 °F 61.0 °F 46% 30.14 in 10.0 mi ENE 10.4 mph - N/A   Clear
7:53 PM 82.0 °F 83.1 °F 63.0 °F 52% 30.14 in 10.0 mi NE 5.8 mph - N/A   Partly Cloudy
8:53 PM 75.9 °F - 64.0 °F 67% 30.16 in 10.0 mi NE 5.8 mph - N/A   Clear
9:53 PM 73.9 °F - 63.0 °F 68% 30.17 in 10.0 mi NE 5.8 mph - N/A   Clear
10:53 PM 72.0 °F - 63.0 °F 73% 30.18 in 10.0 mi NE 6.9 mph - N/A   Clear
11:53 PM 71.1 °F - 63.0 °F 75% 30.19 in 10.0 mi NE 8.1 mph - N/A   Clear